Weather History for Marianna, FL

Change the Weather History Date:

Saturday, February 16, 2013

  Actual Average Record
Temperature  
Mean Temperature 46 °F 55 °F  
Max Temperature 57 °F 66 °F 80 °F (2001)
Min Temperature 35 °F 43 °F 27 °F (2007)
Degree Days  
Heating Degree Days 19    
Month to date heating degree days 154  
Since 1 July heating degree days 880  
Cooling Degree Days 0    
Month to date cooling degree days 5  
Year to date cooling degree days 58  
Moisture  
Dew Point 28 °F    
Average Humidity 56    
Maximum Humidity 89    
Minimum Humidity 23    
Precipitation  
Precipitation 0.03 in 0.16 in 1.22 in (1998)
Month to date precipitation 2.80 2.70  
Year to date precipitation 3.76 7.74  
Sea Level Pressure  
Sea Level Pressure 30.09 in    
Wind  
Wind Speed 11 mph (NW)    
Max Wind Speed 28 mph    
Max Gust Speed 38 mph    
Visibility 10 miles    
Events Rain    
T = Trace of Precipitation, MM = Missing Value Source: NWS Daily Summary

Daily Weather History Graph

Daily Weather History Graph

Search for Another Location

Airport:

Trip Planner

Search our weather history database for the weather conditions in past years. The results will help you decide how hot, cold, wet, or windy it might be!

Date:

Astronomy

Feb. 16, 2013 Rise Set
Actual Time 6:20 AM CST 5:29 PM CST
Civil Twilight 5:55 AM CST 5:54 PM CST
Nautical Twilight 5:27 AM CST 6:22 PM CST
Astronomical Twilight 4:59 AM CST 6:50 PM CST
Moon 10:02 AM CST (2/16) 11:54 PM CST (2/16)
Length of Visible Light 11h 58m
Length of Day
11h 09m
Waxing Crescent, 39% of the Moon is Illuminated
Feb 16
Waxing Crescent
Feb 17
First Quarter
Feb 25
Full
Mar 4
Last Quarter
Mar 11
New

Hourly Weather History & Observations

Time (CST) Temp. Windchill Dew Point Humidity Pressure Visibility Wind Dir Wind Speed Gust Speed Precip Events Conditions
12:53 AM 45.0 °F - 41.0 °F 86% 30.02 in 10.0 mi Calm Calm - N/A   Clear
1:53 AM 45.0 °F - 39.9 °F 82% 30.00 in 10.0 mi Calm Calm - N/A   Clear
2:53 AM 45.0 °F 41.8 °F 39.9 °F 82% 30.00 in 10.0 mi WNW 5.8 mph - N/A   Clear
3:53 AM 45.0 °F 42.6 °F 39.9 °F 82% 30.01 in 10.0 mi WNW 4.6 mph - N/A   Clear
4:53 AM 44.1 °F 40.8 °F 39.0 °F 82% 30.02 in 10.0 mi WNW 5.8 mph - N/A   Scattered Clouds
5:53 AM 45.0 °F 42.6 °F 39.9 °F 82% 30.03 in 10.0 mi NW 4.6 mph - N/A   Overcast
6:53 AM 46.0 °F 41.4 °F 39.9 °F 79% 30.06 in 10.0 mi NW 9.2 mph - N/A   Overcast
7:53 AM 45.0 °F 38.5 °F 41.0 °F 86% 30.10 in 6.0 mi WNW 13.8 mph 19.6 mph 0.02 in Rain Light Rain
8:53 AM 46.0 °F 43.1 °F 36.0 °F 68% 30.08 in 10.0 mi WNW 5.8 mph 18.4 mph 0.01 in Rain Light Rain
9:53 AM 50.0 °F - 35.1 °F 57% 30.08 in 10.0 mi West 15.0 mph 25.3 mph 0.00 in   Partly Cloudy
10:53 AM 54.0 °F - 30.0 °F 40% 30.08 in 10.0 mi NW 19.6 mph 28.8 mph N/A   Clear
11:53 AM 55.0 °F - 27.0 °F 34% 30.06 in 10.0 mi NW 18.4 mph 27.6 mph N/A   Clear
12:53 PM 57.0 °F - 26.1 °F 30% 30.05 in 10.0 mi NW 16.1 mph 31.1 mph N/A   Mostly Cloudy
1:53 PM 52.0 °F - 23.0 °F 32% 30.04 in 10.0 mi WNW 18.4 mph 29.9 mph N/A   Mostly Cloudy
2:53 PM 52.0 °F - 19.9 °F 28% 30.05 in 10.0 mi NW 20.7 mph 31.1 mph N/A   Mostly Cloudy
3:53 PM 50.0 °F - 15.1 °F 25% 30.06 in 10.0 mi WNW 18.4 mph 38.0 mph N/A   Partly Cloudy
4:53 PM 48.9 °F - 12.0 °F 23% 30.09 in 10.0 mi NW 20.7 mph 31.1 mph N/A   Partly Cloudy
5:53 PM 46.0 °F 39.9 °F 12.9 °F 26% 30.11 in 10.0 mi NW 13.8 mph 21.9 mph N/A   Clear
6:53 PM 43.0 °F 37.2 °F 15.1 °F 32% 30.14 in 10.0 mi NW 10.4 mph - N/A   Clear
7:53 PM 42.1 °F 36.6 °F 16.0 °F 35% 30.18 in 10.0 mi NW 9.2 mph - N/A   Clear
8:53 PM 39.9 °F 35.1 °F 18.0 °F 41% 30.21 in 10.0 mi NW 6.9 mph - N/A   Clear
9:53 PM 37.9 °F 33.5 °F 18.0 °F 45% 30.23 in 10.0 mi NW 5.8 mph - N/A   Clear
10:53 PM 37.0 °F 32.4 °F 19.0 °F 48% 30.24 in 10.0 mi NW 5.8 mph - N/A   Clear
11:53 PM 35.1 °F 30.1 °F 19.9 °F 54% 30.25 in 10.0 mi NW 5.8 mph - N/A   Clear